User: anonymous   Login
Location: Unspecified
(0.0000°N, 0.0000°E)
Time: 18:43:23
(UTC+00:00)
Language:

TANYUSHA 2 - Orbit

View from above orbital plane
View from above orbital plane
View from above satellite
View from above satellite

Ground track
Ground track

The orbit data is extracted from the following two-line orbital elements,

1 42912U 98067NB  18350.97019992  .00023733  00000-0  17899-3 0  9996
2 42912  51.6390 155.2384 0005013 185.8873 251.3436 15.72352039 76061
Epoch (UTC): 16 December 2018 23:17:05
Eccentricity: 0.0005013
inclination: 51.6390°
perigee height: 349 km
apogee height: 355 km
right ascension of ascending node: 155.2384°
argument of perigee: 185.8873°
revolutions per day: 15.72352039
mean anomaly at epoch: 251.3436°
orbit number at epoch: 7606

The dashed part of the orbit path shows where the satellite is in the earth's shadow,  

DLR